Location: Ozark
(37.5425°N, 88.7628°W)
Time: 01:35:02
(UTC+00:00)

Cosmos 1758 Rocket - Pass Details

Date: 26 January 2020
Orbit: 603 x 635 km, 82.5° (Epoch: 21 February)

Event Time Altitude Azimuth Distance (km) Brightness Sun altitude
Rises 23:35:26 0° 190° (S) 2,841 7.4 -5.2°
Reaches altitude 10° 23:37:39 10° 192° (SSW) 1,941 6.6 -5.6°
Maximum altitude 23:41:56 74° 278° (W) 631 3.8 -6.4°
Drops below altitude 10° 23:46:15 10° 3° (N) 1,957 5.9 -7.2°
Sets 23:48:29 0° 6° (N) 2,866 6.7 -7.6°
